This is the latest recevied weather packets stored in our database for station/object N3AVN. If no packets are shown the sender has not sent any weather packets the latest 10 day(s).
| Time | Temp. | Humidity | Pressure | Rain* | Wind** | Luminosity | Snow |
|---|---|---|---|---|---|---|---|
| 1777718548 | 8.33° C | 98% | 1011.1 hPa | 1.78 mm | - | 0 W/m² | - |
| 1777718245 | 8.33° C | 98% | 1010.9 hPa | 0 mm | - | 0 W/m² | - |
| 1777717943 | 8.33° C | 98% | 1010.7 hPa | 0 mm | - | 0 W/m² | - |
| 1777717640 | 8.33° C | 98% | 1010.5 hPa | 0 mm | - | 2 W/m² | - |
| 1777717337 | 8.33° C | 98% | 1010.2 hPa | 0 mm | - | 17 W/m² | - |
| 1777717034 | 8.33° C | 98% | 1010 hPa | 0 mm | - | 2 W/m² | - |
| 1777716732 | 8.33° C | 98% | 1010.5 hPa | 0.51 mm | - | 0 W/m² | - |
| 1777716430 | 8.33° C | 98% | 1010.6 hPa | 1.78 mm | - | 0 W/m² | - |
| 1777716129 | 8.33° C | 98% | 1010.4 hPa | 3.56 mm | - | 0 W/m² | - |
| 1777715827 | 8.33° C | 98% | 1010.9 hPa | 2.29 mm | - | 0 W/m² | - |
| 1777715524 | 8.33° C | 98% | 1011 hPa | 0.51 mm | - | 0 W/m² | - |
| 1777715221 | 8.33° C | 98% | 1010.7 hPa | 0 mm | - | 0 W/m² | - |
| 1777714919 | 8.33° C | 98% | 1010.4 hPa | 0 mm | - | 0 W/m² | - |
| 1777714616 | 8.33° C | 97% | 1010.7 hPa | 0 mm | - | 0 W/m² | - |
| 1777714314 | 8.33° C | 97% | 1010.2 hPa | 0 mm | - | 0 W/m² | - |
| 1777714011 | 8.33° C | 97% | 1010.3 hPa | 0 mm | - | 0 W/m² | - |
| 1777713710 | 8.33° C | 97% | 1010.4 hPa | 0 mm | - | 0 W/m² | - |
| 1777713406 | 8.33° C | 97% | 1010.5 hPa | 0.51 mm | - | 0 W/m² | - |
| 1777713103 | 8.33° C | 97% | 1010.4 hPa | 1.27 mm | - | 0 W/m² | - |
| 1777712799 | 8.33° C | 97% | 1010.8 hPa | 0.51 mm | - | 0 W/m² | - |
| 1777712496 | 8.33° C | 97% | 1010.6 hPa | 0 mm | - | 0 W/m² | - |
| 1777712192 | 8.33° C | 97% | 1010.2 hPa | 0 mm | - | 0 W/m² | - |
| 1777711889 | 8.33° C | 96% | 1010.3 hPa | 0 mm | - | 0 W/m² | - |
| 1777711581 | 8.33° C | 96% | 1010.5 hPa | 0 mm | - | 0 W/m² | - |
| 1777711281 | 8.33° C | 96% | 1010.2 hPa | 0 mm | - | 0 W/m² | - |
* Rain latest hour (hover to see other rain measurements)
** Current wind speed in m/s (hover to see current wind gust speed)